BLOCK DM-SL R/B, 27855

Orbit data source: Space-Track

BLOCK DM-SL R/B, 27855 is space debris in HEO originally from a launch on Fri, 08 Aug 2003 UTC launched from the Sea Launch (SEAL). Debris objects in space refer to the collection of defunct objects orbiting the Earth. Examples of debris include non-operational satellites, rocket bodies, and fragments generated from explosions, collisions, or faulty payload assembly.

Loading next visibility...
Identifier
27855, 2003-034B
Orbit
HEO
Country
Flag of UnknownUnknown / SEAL
Related business
Manufacturer
RKKE
Mission
Spacecraft
Bus & Motor
BLOK DM2, 11D58M
Mass
~3,210 kg wet, 3,210 kg dry
Launch date (UTC)
2003-08-08 (22 years ago)
Launch vehicle
Unknown
Launch site
Sea Launch (SEAL)
Object type
Payload
Rocket body
Debris
Shape & HBR
Cyl, 3.1 m
Radar Cross Section
23.684 m², Large (>1 m²)

Expand to show TLE details & history
Last TLE update: 14 hours ago

TLE from 14 hours ago
0 BLOCK DM-SL R/B
1 27855U 03034B   25286.91489885 -.00000123  00000-0  41546-3 0  9992
2 27855   0.8497  27.1868 7133429 121.1941 251.8646  2.24675051182169
Epoch: 2025-10-13T21:57Z
TLE epoch observation values (Epoch: 2025-10-13T21:57:27.260Z)
Latitude
-0.54817°
Longitude
-5.05326°
Altitude
30,971.793 km
Speed
2.271 km/s
True Right ascension
23h 08m 05s
True Declination
0° 32' 51"
Sunlit
Object was in daylight at epoch
Visualization orbit readout
Latitude
Unknown
Longitude
Unknown
Altitude
Unknown
Speed
Unknown
Apparent Right ascension
Unknown
Apparent Declination
Unknown
Sunlit
N/A
Visualization observer readout
Local Sidereal Time
06:28:46
Azimuth
Unknown
Elevation
Unknown
Doppler factor
Unknown
Orbital elements
Apogee altitude
35,820.794 km
Perigee altitude
682.109 km
Semi-major axis
24,629.589 km
Eccentricity
0.71334
Inclination
0.8497°
RAAN
27.1868°
Arg. of periapsis
121.1941°
True anomaly
198.60678°
Mean anomaly
251.8646°
Eccentric anomaly
223.65196°
Mean motion
0.56151 °/min
Orbital period
641.13 mins
BSTAR
0.00041546
Loading maneuver chart data...
Computing Atmospheric mass density...
Loading historical data...
Loading historical data...
Loading historical data...
Loading historical data...
Loading historical data...
Loading historical data...
Loading historical data...
Other satellites on launch #34 in the year 2003 (2003-08-08 UTC)

Documentation

Showing up to 5 results
|